| time (UTC) | temp C | wind direction | speed KPH | gust KPH | rain 1hr cm | rain 24hr cm | rain mn cm | humidity % | barometer mb |
| 20260504060103 | 10 | 233 | 1.6 | 8.0 | 0.00 | 0.03 | 0.00 | 65 | 1008.3 |
| 20260504050556 | 8 | 0 | 0.0 | 0.0 | 0.00 | 0.03 | 0.00 | 87 | 1008.6 |
| 20260504045555 | 8 | 0 | 0.0 | 0.0 | 0.00 | 0.03 | 0.00 | 86 | 1008.7 |
| 20260504045055 | 8 | 0 | 0.0 | 0.0 | 0.00 | 0.03 | 0.00 | 86 | 1008.7 |
| 20260504044604 | 8 | 0 | 0.0 | 0.0 | 0.00 | 0.03 | 0.00 | 86 | 1008.6 |
| 20260504044056 | 8 | 0 | 0.0 | 0.0 | 0.00 | 0.03 | 0.00 | 86 | 1008.7 |
| 20260504043556 | 8 | 0 | 0.0 | 0.0 | 0.00 | 0.03 | 0.00 | 86 | 1008.7 |
| 20260504043054 | 8 | 0 | 0.0 | 0.0 | 0.00 | 0.03 | 0.00 | 87 | 1008.7 |
| 20260504042555 | 8 | 0 | 0.0 | 0.0 | 0.00 | 0.03 | 0.00 | 86 | 1008.8 |
| 20260504042054 | 8 | 0 | 0.0 | 0.0 | 0.00 | 0.03 | 0.00 | 86 | 1008.8 |
| 20260504041556 | 8 | 0 | 0.0 | 0.0 | 0.00 | 0.03 | 0.00 | 86 | 1008.8 |
| 20260504041056 | 8 | 0 | 0.0 | 0.0 | 0.00 | 0.03 | 0.00 | 86 | 1008.9 |
| 20260504040555 | 8 | 0 | 0.0 | 0.0 | 0.00 | 0.03 | 0.00 | 86 | 1008.8 |
| 20260504040103 | 8 | 0 | 0.0 | 0.0 | 0.00 | 0.03 | 0.00 | 86 | 1008.8 |
| 20260504035555 | 8 | 0 | 0.0 | 0.0 | 0.00 | 0.03 | 0.03 | 86 | 1008.8 |
| 20260504035055 | 8 | 0 | 0.0 | 0.0 | 0.00 | 0.03 | 0.03 | 86 | 1008.8 |
| 20260504034603 | 8 | 0 | 0.0 | 0.0 | 0.00 | 0.03 | 0.03 | 86 | 1008.8 |
| 20260504034055 | 8 | 0 | 0.0 | 0.0 | 0.00 | 0.03 | 0.03 | 85 | 1008.9 |
| 20260504033555 | 8 | 0 | 0.0 | 0.0 | 0.00 | 0.03 | 0.03 | 85 | 1009.0 |
| 20260504033104 | 8 | 0 | 0.0 | 0.0 | 0.00 | 0.03 | 0.03 | 85 | 1009.0 |
| 20260504032556 | 8 | 0 | 0.0 | 0.0 | 0.00 | 0.03 | 0.03 | 85 | 1009.0 |
| 20260504032055 | 8 | 0 | 0.0 | 0.0 | 0.00 | 0.03 | 0.03 | 85 | 1009.1 |
| 20260504031556 | 8 | 0 | 0.0 | 0.0 | 0.00 | 0.03 | 0.03 | 84 | 1009.2 |
| 20260504031055 | 8 | 0 | 0.0 | 0.0 | 0.00 | 0.03 | 0.03 | 84 | 1009.2 |
| 20260504030555 | 8 | 0 | 0.0 | 0.0 | 0.00 | 0.03 | 0.03 | 85 | 1009.2 |
| 20260504030054 | 8 | 0 | 0.0 | 0.0 | 0.00 | 0.03 | 0.03 | 84 | 1009.3 |
| 20260504025552 | 8 | 0 | 0.0 | 0.0 | 0.00 | 0.03 | 0.03 | 84 | 1009.4 |
| 20260504025055 | 8 | 0 | 0.0 | 0.0 | 0.00 | 0.03 | 0.03 | 83 | 1009.3 |
| 20260504024601 | 8 | 0 | 0.0 | 0.0 | 0.00 | 0.03 | 0.03 | 83 | 1009.3 |
| 20260504024055 | 8 | 0 | 0.0 | 0.0 | 0.00 | 0.03 | 0.03 | 83 | 1009.3 |
| 20260504023556 | 8 | 0 | 0.0 | 0.0 | 0.00 | 0.03 | 0.03 | 82 | 1009.4 |
| 20260504023057 | 8 | 0 | 0.0 | 0.0 | 0.00 | 0.03 | 0.03 | 81 | 1009.3 |
| 20260504022556 | 8 | 0 | 0.0 | 0.0 | 0.00 | 0.03 | 0.03 | 81 | 1009.3 |
| 20260504022056 | 9 | 0 | 0.0 | 0.0 | 0.00 | 0.03 | 0.03 | 81 | 1009.5 |
| 20260504021554 | 9 | 0 | 0.0 | 0.0 | 0.03 | 0.03 | 0.03 | 80 | 1009.6 |
| 20260504021054 | 9 | 0 | 0.0 | 0.0 | 0.03 | 0.03 | 0.03 | 78 | 1009.8 |
| 20260504020555 | 9 | 0 | 0.0 | 0.0 | 0.03 | 0.03 | 0.03 | 78 | 1009.9 |
| 20260504020055 | 9 | 0 | 0.0 | 0.0 | 0.03 | 0.03 | 0.03 | 77 | 1009.8 |
| 20260504015555 | 10 | 0 | 0.0 | 0.0 | 0.03 | 0.03 | 0.03 | 76 | 1009.9 |
| 20260504015056 | 10 | 0 | 0.0 | 6.4 | 0.03 | 0.03 | 0.03 | 76 | 1009.9 |
| 20260504014556 | 10 | 0 | 0.0 | 6.4 | 0.03 | 0.03 | 0.03 | 76 | 1009.9 |
| 20260504014058 | 10 | 292 | 3.2 | 12.9 | 0.03 | 0.03 | 0.03 | 75 | 1009.9 |
| 20260504013555 | 10 | 285 | 4.8 | 17.7 | 0.03 | 0.03 | 0.03 | 75 | 1009.9 |
| 20260504013057 | 10 | 300 | 8.0 | 17.7 | 0.03 | 0.03 | 0.03 | 74 | 1010.0 |
| 20260504012555 | 10 | 297 | 8.0 | 24.1 | 0.03 | 0.03 | 0.03 | 74 | 1010.2 |
| 20260504012055 | 10 | 303 | 11.3 | 24.1 | 0.03 | 0.03 | 0.03 | 73 | 1010.3 |
| 20260504011555 | 10 | 281 | 9.7 | 16.1 | 0.00 | 0.00 | 0.00 | 70 | 1010.2 |
| 20260504011054 | 10 | 276 | 8.0 | 19.3 | 0.00 | 0.00 | 0.00 | 68 | 1010.2 |
| 20260504010554 | 11 | 304 | 9.7 | 19.3 | 0.00 | 0.00 | 0.00 | 67 | 1010.1 |
| 20260504010101 | 11 | 290 | 12.9 | 19.3 | 0.00 | 0.00 | 0.00 | 65 | 1010.0 |
| 20260504005554 | 11 | 295 | 8.0 | 19.3 | 0.00 | 0.00 | 0.00 | 65 | 1009.8 |
| 20260504005057 | 11 | 296 | 11.3 | 27.4 | 0.00 | 0.00 | 0.00 | 64 | 1009.8 |
| 20260504004555 | 11 | 304 | 6.4 | 30.6 | 0.00 | 0.00 | 0.00 | 62 | 1009.8 |
| 20260504004058 | 11 | 325 | 12.9 | 30.6 | 0.00 | 0.00 | 0.00 | 60 | 1009.8 |
| 20260504003557 | 11 | 283 | 11.3 | 22.5 | 0.00 | 0.00 | 0.00 | 62 | 1009.9 |
| 20260504003055 | 12 | 290 | 11.3 | 30.6 | 0.00 | 0.00 | 0.00 | 59 | 1009.8 |
| 20260504002554 | 12 | 297 | 9.7 | 30.6 | 0.00 | 0.00 | 0.00 | 55 | 1009.6 |
| 20260504002054 | 12 | 262 | 12.9 | 25.7 | 0.00 | 0.00 | 0.00 | 56 | 1009.3 |
| 20260504001612 | 12 | 293 | 11.3 | 20.9 | 0.00 | 0.00 | 0.00 | 56 | 1009.2 |
| 20260504001054 | 11 | 281 | 4.8 | 11.3 | 0.00 | 0.00 | 0.00 | 53 | 1009.2 |
| 20260504000553 | 12 | 205 | 0.0 | 1.6 | 0.00 | 0.00 | 0.00 | 54 | 1008.9 |
| 20260504000056 | 12 | 0 | 0.0 | 0.0 | 0.00 | 0.00 | 0.00 | 54 | 1008.9 |
| 20260503235553 | 12 | 0 | 0.0 | 0.0 | 0.00 | 0.00 | 0.00 | 54 | 1008.6 |
| 20260503235055 | 12 | 0 | 0.0 | 0.0 | 0.00 | 0.00 | 0.00 | 53 | 1008.6 |
| 20260503234556 | 12 | 0 | 0.0 | 0.0 | 0.00 | 0.00 | 0.00 | 53 | 1008.6 |
| 20260503234055 | 12 | 0 | 0.0 | 1.6 | 0.00 | 0.00 | 0.00 | 52 | 1008.6 |
| 20260503233554 | 12 | 0 | 0.0 | 1.6 | 0.00 | 0.00 | 0.00 | 51 | 1008.5 |
| 20260503233056 | 12 | 0 | 0.0 | 3.2 | 0.00 | 0.00 | 0.00 | 50 | 1008.7 |
| 20260503232558 | 12 | 0 | 0.0 | 11.3 | 0.00 | 0.00 | 0.00 | 48 | 1008.6 |
| 20260503232055 | 12 | 0 | 4.8 | 11.3 | 0.00 | 0.00 | 0.00 | 49 | 1008.7 |
| 20260503231556 | 12 | 231 | 1.6 | 9.7 | 0.00 | 0.00 | 0.00 | 48 | 1008.9 |
| 20260503231054 | 12 | 0 | 3.2 | 9.7 | 0.00 | 0.00 | 0.00 | 51 | 1009.0 |
| 20260503230555 | 12 | 280 | 3.2 | 16.1 | 0.00 | 0.00 | 0.00 | 50 | 1009.1 |
| 20260503230055 | 12 | 0 | 6.4 | 16.1 | 0.00 | 0.00 | 0.00 | 50 | 1009.2 |
| 20260503225555 | 12 | 339 | 4.8 | 19.3 | 0.00 | 0.00 | 0.00 | 48 | 1009.6 |
| 20260503225054 | 12 | 341 | 6.4 | 19.3 | 0.00 | 0.00 | 0.00 | 48 | 1009.7 |
| 20260503224556 | 12 | 310 | 9.7 | 19.3 | 0.00 | 0.00 | 0.00 | 46 | 1009.7 |
| 20260503224054 | 12 | 303 | 6.4 | 16.1 | 0.00 | 0.00 | 0.00 | 47 | 1009.5 |
| 20260503223555 | 13 | 323 | 4.8 | 14.5 | 0.00 | 0.00 | 0.00 | 45 | 1009.4 |
| 20260503223057 | 13 | 309 | 4.8 | 14.5 | 0.00 | 0.00 | 0.00 | 43 | 1009.3 |
| 20260503222559 | 13 | 321 | 1.6 | 9.7 | 0.00 | 0.00 | 0.00 | 44 | 1009.4 |
| 20260503222056 | 13 | 286 | 0.0 | 9.7 | 0.00 | 0.00 | 0.00 | 44 | 1009.2 |
| 20260503221556 | 13 | 290 | 4.8 | 9.7 | 0.00 | 0.00 | 0.00 | 44 | 1009.3 |
| 20260503221059 | 13 | 334 | 3.2 | 11.3 | 0.00 | 0.00 | 0.00 | 44 | 1009.1 |
| 20260503220556 | 13 | 299 | 3.2 | 11.3 | 0.00 | 0.00 | 0.00 | 44 | 1009.0 |
| 20260503220111 | 13 | 258 | 6.4 | 12.9 | 0.00 | 0.00 | 0.00 | 43 | 1008.9 |
| 20260503215555 | 13 | 297 | 4.8 | 16.1 | 0.00 | 0.00 | 0.00 | 44 | 1008.9 |
| 20260503215055 | 13 | 213 | 6.4 | 16.1 | 0.00 | 0.00 | 0.00 | 44 | 1009.1 |
| 20260503214555 | 13 | 271 | 8.0 | 17.7 | 0.00 | 0.00 | 0.00 | 43 | 1009.1 |
| 20260503214055 | 13 | 266 | 6.4 | 17.7 | 0.00 | 0.00 | 0.00 | 44 | 1009.2 |
| 20260503213558 | 13 | 288 | 9.7 | 17.7 | 0.00 | 0.00 | 0.00 | 42 | 1009.3 |
| 20260503213056 | 13 | 281 | 9.7 | 17.7 | 0.00 | 0.00 | 0.00 | 43 | 1009.2 |
| 20260503212555 | 13 | 285 | 6.4 | 12.9 | 0.00 | 0.00 | 0.00 | 44 | 1009.2 |
| 20260503212054 | 12 | 284 | 6.4 | 12.9 | 0.00 | 0.00 | 0.00 | 45 | 1009.2 |
| 20260503211606 | 13 | 304 | 9.7 | 16.1 | 0.00 | 0.00 | 0.00 | 44 | 1009.1 |
| 20260503211057 | 13 | 283 | 9.7 | 20.9 | 0.00 | 0.00 | 0.00 | 43 | 1009.2 |
| 20260503210555 | 13 | 295 | 8.0 | 22.5 | 0.00 | 0.00 | 0.00 | 42 | 1009.2 |
| 20260503210057 | 13 | 252 | 11.3 | 22.5 | 0.00 | 0.00 | 0.00 | 42 | 1009.2 |
| 20260503205555 | 13 | 293 | 3.2 | 12.9 | 0.00 | 0.00 | 0.00 | 41 | 1009.3 |
| 20260503205101 | 13 | 259 | 1.6 | 14.5 | 0.00 | 0.00 | 0.00 | 46 | 1009.3 |
| 20260503204602 | 13 | 309 | 6.4 | 14.5 | 0.00 | 0.00 | 0.00 | 46 | 1009.5 |
| 20260503204053 | 12 | 258 | 6.4 | 14.5 | 0.00 | 0.00 | 0.00 | 48 | 1009.5 |
| 20260503203554 | 12 | 225 | 6.4 | 14.5 | 0.00 | 0.00 | 0.00 | 47 | 1009.5 |
| 20260503203057 | 12 | 239 | 4.8 | 11.3 | 0.00 | 0.00 | 0.00 | 47 | 1009.6 |
| 20260503202558 | 12 | 288 | 6.4 | 14.5 | 0.00 | 0.00 | 0.00 | 47 | 1009.7 |
| 20260503202056 | 12 | 223 | 8.0 | 14.5 | 0.00 | 0.00 | 0.00 | 47 | 1009.7 |
| 20260503201554 | 12 | 279 | 8.0 | 14.5 | 0.00 | 0.00 | 0.00 | 49 | 1009.8 |
| 20260503201055 | 12 | 272 | 4.8 | 17.7 | 0.00 | 0.00 | 0.00 | 48 | 1009.8 |
| 20260503200552 | 12 | 293 | 11.3 | 17.7 | 0.00 | 0.00 | 0.00 | 47 | 1009.9 |
| 20260503200056 | 13 | 241 | 9.7 | 19.3 | 0.00 | 0.00 | 0.00 | 48 | 1009.9 |
| 20260503195555 | 13 | 308 | 4.8 | 19.3 | 0.00 | 0.00 | 0.00 | 43 | 1009.9 |
| 20260503195053 | 13 | 335 | 11.3 | 19.3 | 0.00 | 0.00 | 0.00 | 42 | 1010.1 |
| 20260503194557 | 12 | 262 | 12.9 | 22.5 | 0.00 | 0.00 | 0.00 | 42 | 1010.1 |
| 20260503194054 | 12 | 269 | 9.7 | 22.5 | 0.00 | 0.00 | 0.00 | 48 | 1010.2 |
| 20260503193554 | 12 | 288 | 3.2 | 16.1 | 0.00 | 0.00 | 0.00 | 47 | 1010.4 |
| 20260503193113 | 12 | 290 | 6.4 | 16.1 | 0.00 | 0.00 | 0.00 | 47 | 1010.4 |
| 20260503192554 | 12 | 304 | 3.2 | 14.5 | 0.00 | 0.00 | 0.00 | 46 | 1010.4 |
| 20260503192058 | 12 | 285 | 4.8 | 20.9 | 0.00 | 0.00 | 0.00 | 46 | 1010.4 |
| 20260503191600 | 12 | 298 | 8.0 | 20.9 | 0.00 | 0.00 | 0.00 | 46 | 1010.4 |
| 20260503191059 | 12 | 281 | 8.0 | 16.1 | 0.00 | 0.00 | 0.00 | 43 | 1010.3 |
| 20260503190555 | 12 | 324 | 8.0 | 20.9 | 0.00 | 0.00 | 0.00 | 47 | 1010.3 |
| 20260503190058 | 12 | 244 | 12.9 | 20.9 | 0.00 | 0.00 | 0.00 | 47 | 1010.4 |
| 20260503185554 | 12 | 291 | 11.3 | 20.9 | 0.00 | 0.00 | 0.00 | 45 | 1010.4 |
| 20260503185054 | 12 | 288 | 8.0 | 20.9 | 0.00 | 0.00 | 0.00 | 41 | 1010.4 |
| 20260503184554 | 13 | 264 | 9.7 | 20.9 | 0.00 | 0.00 | 0.00 | 45 | 1010.3 |
| 20260503184057 | 12 | 333 | 8.0 | 20.9 | 0.00 | 0.00 | 0.00 | 44 | 1010.3 |
| 20260503183554 | 12 | 303 | 3.2 | 16.1 | 0.00 | 0.00 | 0.00 | 44 | 1010.4 |
| 20260503183059 | 12 | 283 | 9.7 | 22.5 | 0.00 | 0.00 | 0.00 | 44 | 1010.4 |
| 20260503182601 | 12 | 265 | 14.5 | 22.5 | 0.00 | 0.00 | 0.00 | 43 | 1010.6 |
| 20260503182054 | 12 | 306 | 8.0 | 17.7 | 0.00 | 0.00 | 0.00 | 45 | 1010.6 |
| 20260503181620 | 12 | 292 | 8.0 | 14.5 | 0.00 | 0.00 | 0.00 | 43 | 1010.6 |
| 20260503181055 | 12 | 242 | 4.8 | 16.1 | 0.00 | 0.00 | 0.00 | 44 | 1010.8 |
| 20260503180554 | 12 | 282 | 3.2 | 16.1 | 0.00 | 0.00 | 0.00 | 43 | 1010.8 |
| 20260503180120 | 12 | 226 | 4.8 | 12.9 | 0.00 | 0.00 | 0.00 | 46 | 1011.0 |
| 20260503175556 | 12 | 254 | 3.2 | 12.9 | 0.00 | 0.00 | 0.00 | 44 | 1010.9 |
| 20260503175054 | 12 | 0 | 6.4 | 17.7 | 0.00 | 0.00 | 0.00 | 41 | 1011.0 |
| 20260503174557 | 12 | 306 | 8.0 | 17.7 | 0.00 | 0.00 | 0.00 | 43 | 1011.1 |
| 20260503174054 | 12 | 288 | 6.4 | 16.1 | 0.00 | 0.00 | 0.00 | 39 | 1011.1 |
| 20260503173555 | 12 | 243 | 9.7 | 16.1 | 0.00 | 0.00 | 0.00 | 40 | 1011.2 |
| 20260503173102 | 12 | 222 | 4.8 | 16.1 | 0.00 | 0.00 | 0.00 | 46 | 1011.2 |
| 20260503172558 | 11 | 275 | 6.4 | 16.1 | 0.00 | 0.00 | 0.00 | 42 | 1011.3 |
| 20260503172054 | 12 | 256 | 8.0 | 16.1 | 0.00 | 0.00 | 0.00 | 43 | 1011.3 |
| 20260503171554 | 11 | 221 | 6.4 | 12.9 | 0.00 | 0.00 | 0.00 | 48 | 1011.2 |
| 20260503171054 | 11 | 252 | 4.8 | 14.5 | 0.00 | 0.00 | 0.00 | 43 | 1011.2 |
| 20260503170554 | 11 | 240 | 6.4 | 14.5 | 0.00 | 0.00 | 0.00 | 41 | 1011.3 |
| 20260503150554 | 9 | 333 | 4.8 | 16.1 | 0.00 | 0.00 | 0.00 | 46 | 1013.1 |
| 20260503150105 | 8 | 330 | 4.8 | 16.1 | 0.00 | 0.00 | 0.00 | 46 | 1013.1 |
| 20260503131055 | 6 | 0 | 1.6 | 14.5 | 0.00 | 0.00 | 0.00 | 58 | 1013.8 |
| 20260503130554 | 6 | 255 | 6.4 | 11.3 | 0.00 | 0.00 | 0.00 | 59 | 1013.7 |
| 20260503120107 | 4 | 309 | 6.4 | 12.9 | 0.00 | 0.00 | 0.00 | 76 | 1013.6 |
| 20260503110555 | 2 | 290 | 4.8 | 9.7 | 0.00 | 0.00 | 0.00 | 80 | 1013.3 |
| 20260503100113 | 2 | 0 | 0.0 | 1.6 | 0.00 | 0.00 | 0.00 | 82 | 1012.8 |
| 20260503090105 | 3 | 0 | 0.0 | 3.2 | 0.00 | 0.00 | 0.00 | 79 | 1012.9 |
| 20260503081602 | 3 | 0 | 0.0 | 0.0 | 0.00 | 0.00 | 0.00 | 79 | 1013.0 |
| 20260503081054 | 3 | 0 | 0.0 | 0.0 | 0.00 | 0.00 | 0.00 | 79 | 1013.0 |
| 20260503080556 | 3 | 0 | 0.0 | 0.0 | 0.00 | 0.00 | 0.00 | 78 | 1013.0 |
| 20260503072555 | 4 | 294 | 3.2 | 4.8 | 0.00 | 0.00 | 0.00 | 79 | 1013.0 |
| 20260503072055 | 4 | 283 | 1.6 | 4.8 | 0.00 | 0.00 | 0.00 | 78 | 1013.0 |